030  
ASUS41 KOKX 281205  
RWROKX  
 
REGIONAL WEATHER ROUNDUP  
NATIONAL WEATHER SERVICE NEW YORK NY  
800 AM EDT THU JUL 28 2016  
 
NOTE: "FAIR" INDICATES FEW OR NO CLOUDS BELOW 12,000 FEET WITH NO  
SIGNIFICANT WEATHER AND/OR S TO VISIBILITY
.  
 
NYZ071-072-176-178-NJZ106-104-281300-  
NEW YORK CITY METRO AREA  
 
CITY SKY/WX TMP DP RH WIND PRES REMARKS
 
CENTRAL PARK SUNNY 80 70 71 CALM 29.95R  
LAGUARDIA APRT PTSUNNY 79 73 82 NE7 29.91S  
KENNEDY INTL MOSUNNY 79 74 84 S3 29.93R  
NEWARK/LIBERTY MOSUNNY 82 70 66 CALM 29.91S  
BRONX BOT GARD N/A 81 70 69 E1 29.92F  
WALL ST HELIPT SUNNY 77 73 88 W3 29.93R  
TETERBORO SUNNY 78 64 61 CALM 29.91S  

 
 
NYZ177-179-078>081-281300-  
LONG ISLAND NEW YORK  
 
CITY SKY/WX TMP DP RH WIND PRES REMARKS
 
FARMINGDALE SUNNY 79 75 87 CALM 29.92S FOG  
MACARTHUR/ISP PTSUNNY 78 74 87 CALM 29.92R FOG  
SHIRLEY PTSUNNY 77 76 96 CALM 29.93S FOG  
RIVERHEAD NOT AVBL  
WESTHAMPTON PTSUNNY 76 72 87 CALM 29.94S FOG  
SOUTHHAMPTON N/A 75 73 94 W1 29.89S  
BRIDGEHAMPTON N/A 72 72 100 CALM 29.92S  
EAST HAMPTON FOG 73 72 98 CALM 29.92S VSB 1/4  
MONTAUK N/A 72 72 100 CALM 29.94R  

 
 
NYZ052-065-067-281300-  
HUDSON VALLEY  
 
CITY SKY/WX TMP DP RH WIND PRES REMARKS
 
WHITE PLAINS MOSUNNY 76 71 85 CALM 29.93R  
NEWBURGH SUNNY 72 64 78 CALM 29.96R  
MONTGOMERY MOSUNNY 69 64 84 SW3 29.94R  
POUGHKEEPSIE MOSUNNY 72 63 73 CALM 29.93R  
ALBANY MOSUNNY 72 63 73 S5 29.93R  

 
 
NJZ001-105-106-008-010-013-015-019>022-104-281300-  
NEW JERSEY  
 
CITY SKY/WX TMP DP RH WIND PRES REMARKS
 
NEWARK/LIBERTY MOSUNNY 82 70 66 CALM 29.91S  
TETERBORO SUNNY 78 64 61 CALM 29.91S  
CALDWELL MOSUNNY 74 66 76 CALM 29.93S  
MORRISTOWN SUNNY 72 68 88 CALM 29.93S  
SOMERVILLE SUNNY 73 67 81 CALM 29.91R  
LINDEN FAIR 78 71 79 CALM 29.94R  
SUSSEX MOSUNNY 67 65 93 CALM 29.95S  
ABDOVER N/A 69 66 90 CALM 29.95S  
TRENTON FOG 73 72 96 CALM 29.92S VSB 1/4  
MILLVILLE SUNNY 78 75 90 CALM 29.92S FOG  
ATLANTIC CITY SUNNY 78 73 84 CALM 29.92R  
WRIGHTSTOWN NOT AVBL  
TOMS RIVER SUNNY 79 74 84 CALM 29.93S  
BELMAR SUNNY 77 73 87 CALM 29.94R  

 
 
PAZ047>061-062-071-281300-  
EASTERN PENNSYLVANIA  
 
CITY SKY/WX TMP DP RH WIND PRES REMARKS
 
PHILADELPHIA PTSUNNY 81 71 71 CALM 29.92R  
ALLENTOWN SUNNY 72 65 78 CALM 29.94R  
SCRANTON MOSUNNY 71 61 70 CALM 29.96S  

 
 
CTZ002-004>006-009-010-012-RIZ004-006-007-MAZ004-011-015-281300-  
SOUTHERN NEW ENGLAND  
IN CT  
 
CITY SKY/WX TMP DP RH WIND PRES REMARKS
 
BRADLEY INTL MOSUNNY 73 61 65 N3 29.93R  
HARTFORD SUNNY 77 68 73 CALM 29.92R  
DANBURY MOSUNNY 74 66 76 CALM 29.96R  
WTRBURY/OXFORD MOSUNNY 75 63 64 N3 29.96R  
BRIDGEPORT SUNNY 78 68 71 CALM 29.92R  
MERIDEN SUNNY 76 67 73 CALM 29.92S  
NEW HAVEN SUNNY 77 69 76 CALM 29.93R  
CHESTER FAIR 79 64 61 CALM 29.94R  
GROTON SUNNY 75 70 84 S3 29.92R  
WILIMANTIC NOT AVBL  
 
IN RI  
 
CITY SKY/WX TMP DP RH WIND PRES REMARKS
 
PROVIDENCE MOSUNNY 76 65 68 CALM 29.92R  
BLOCK ISLAND FOG 73 72 96 SW6 29.94R VSB 3/4  
WESTERLY SUNNY 74 69 85 S3 29.93S  
IN MA  
 
CITY SKY/WX TMP DP RH WIND PRES REMARKS
 
BOSTON MOSUNNY 82 62 50 W5 29.90S  
WORCHESTER SUNNY 75 60 59 W7 29.95S  
WESTFIELD MOSUNNY 73 61 65 CALM 29.93R  
PROVINCETOWN SUNNY 75 70 84 SW9 29.91  
NANTUCKET PTSUNNY 72 70 93 S10 29.94R  

 
 
ANZ330-335-338-340-345-350-353-355-281300-  
COASTAL MARINE OBSERVATIONS  
 
 
STATION/POSITION TIME SKY/WX TEMP WIND PRES VSBY WAVE
 
AIR SEA DIR/SP/G HT/PER  
(UTC) (F) (DEG/KT/KT) (MB) (MI) (FT/S)  
NY HARB ENTRANCE 1150 74 74 170/ 4/ 4 1013.1 1/ 8  
20S FIRE ISLAND 1050 76 76 260/ 4/ 6 1012.7 1/ 6  
GREAT SOUTH BAY 1100 76 81 260/ 4/ 6 N/A  
23 SSW MONTAUK P 1050 73 71 270/ 4/ 6 1013.6 1/ 6  
15 E BARNEGAT LI 1122 78 N/A 1/ 6  
HUDSON CANYON NOT AVBL  
KINGS POINT 1100 74 73 1012.8  
EXECUTION ROCKS 1100 73 30/ 2/ 2 N/A  
CENTRAL LI SOUND NOT AVBL  
EASTERN LI SOUND 1100 71 68 130/ 4/ 4 N/A  
ROBBINS REEF 1100 77 220/ 2/ 3 1012.3  

 
 
>>>>>>>>>>>>>>>>>>>>>>>>>>>> KEY <<<<<<<<<<<<<<<<<<<<<<<<<<<  
> <  
> SKY/WX - SKY CONDITION/PRESENT WEATHER <  
> TMP - TEMPERATURE IN FAHRENHEIT <  
> DP - DEW POINT IN FAHRENHEIT <  
> RH - RELATIVE HUMIDITY IN PERCENT <  
> WIND - DIRECTION (FROM) AND SPEED IN MPH <  
> PRES - MEAN SEA LEVEL PRESSURE (INCHES OF HG) <  
> WCI - WIND CHILL INDEX <  
> VSB - VISIBILITY IN MILES <  
> HX - HEAT INDEX <  
> TC - TEMPERATURE IN CELSIUS <  
> VRB - VARIABLE WIND DIRECTION <  
> <  
>>>>>>>>>>>>>>>>>>>>>>>>>>>> KEY <<<<<<<<<<<<<<<<<<<<<<<<<<<  
 
 
CLICK HERE TO GO TO PREVIOUS BULLETINS.

The Nexlab NY Page
The Nexlab NJ Page
The Nexlab CT Page Main Text Page